{"data":{"norad_id":68887,"epoch":"2026-05-24T20:38:55.639680Z","epoch_age_seconds":80374,"freshness":"FRESH","line1":"1 68887U 26095Z   26144.86036620 -.00123454  00000+0 -33582-2 0  9990","line2":"2 68887  51.8849 354.9534 0000895 109.4963 250.6120 15.37407443  4144","mean_motion":15.37407443,"eccentricity":8.95e-5,"inclination_deg":51.8849,"raan_deg":354.9534,"arg_perigee_deg":109.4963,"mean_anomaly_deg":250.612,"bstar":-0.0033582,"rev_number":414,"period_min":93.664175138249,"perigee_km":453.16760400046,"apogee_km":454.39051697529,"semimajor_km":6831.9160604879,"source":"CELESTRAK","updated_at":"2026-05-25T13:38:08.650494Z"}}